Hourly Data Report for October 02, 2014

All times are specified in Local Standard Time (LST). Add 1 hour to adjust for Daylight Saving Time where and when it is observed.

HALL BEACH A
NUNAVUT

68°46'33.000" N
81°14'33.000" W
9.10 m
2402354
71293
YUX

Download Data

Hourly Data (October 2014)
Hourly Data Report for October 2, 2014
Temp Definition
°C
Dew Point Temp Definition
°C
Rel Hum Definition
%
Wind Dir Definition
10's deg

Wind Spd Definition
km/h
Visibility Definition
km
Stn Press Definition
kPa
Hmdx Definition


Wind Chill Definition


Weather Definition


TIME
00:00 Legend Double Dagger -8.6 -10.2 88 30 18 16.1 101.28   -16 LegendNANA
01:00 Legend Double Dagger -7.6 -9.7 85 30 15 16.1 101.27   -14 LegendNANA
02:00 Legend Double Dagger -7.1 -9.2 85 31 8 16.1 101.25   -11 LegendNANA
03:00 Legend Double Dagger -6.7 -8.7 86 24 11 16.1 101.22   -12 LegendNANA
04:00 Legend Double Dagger -5.9 -8.0 85 31 24 16.1 101.20   -13 LegendNANA
05:00 Legend Double Dagger -6.6 -8.2 88 30 17 16.1 101.19   -13 LegendNANA
06:00 Legend Double Dagger -6.7 -8.7 86 31 17 16.1 101.14   -13 LegendNANA
07:00 Legend Double Dagger -6.8 -8.6 87 27 13 16.1 101.14   -12 LegendNANA
08:00 Legend Double Dagger -6.6 -8.6 86 30 15 16.1 101.11   -13 LegendNANA
09:00 Legend Double Dagger -7.1 -9.1 86 32 18 16.1 101.08   -14 LegendNANA
10:00 Legend Double Dagger -7.3 -9.0 88 29 11 16.1 101.08   -12 LegendNANA
11:00 Legend Double Dagger -7.2 -8.7 89 30 13 16.1 101.03   -13 LegendNANA
12:00 Legend Double Dagger -6.7 -8.7 86 30 15 16.1 101.02   -13 LegendNANA
13:00 Legend Double Dagger -6.6 -8.2 89 33 8 16.1 101.01   -10 LegendNANA
14:00 Legend Double Dagger -6.1 -8.2 85 31 15 16.1 100.98   -12 LegendNANA
15:00 Legend Double Dagger -5.8 -7.8 86 32 15 16.1 100.96   -12 LegendNANA
16:00 Legend Double Dagger -6.0 -7.9 87 31 15 16.1 100.96   -12 LegendNANA
17:00 Legend Double Dagger -5.9 -7.6 88 31 18 16.1 100.96   -12 Snow
18:00 Legend Double Dagger -5.7 -7.2 89 32 15 16.1 100.97   -11 Snow
19:00 Legend Double Dagger -4.8 -7.3 83 6 8 16.1 100.98   -8 Snow
20:00 Legend Double Dagger -4.5 -7.4 80 6 15 16.1 100.97   -10 Snow
21:00 Legend Double Dagger -4.5 -7.8 78 5 15 16.1 101.01   -10 LegendNANA
22:00 Legend Double Dagger -4.5 -7.7 79 7 17 16.1 101.03   -10 Snow
23:00 Legend Double Dagger -4.6 -7.4 81 5 17 16.1 101.07   -10 Snow

Notes on Data Quality.

Legend

  • E = Estimated
  • M = Missing
  • NA = Not Available
  • ‡ = Partner data that is not subject to review by the National Climate Archives
Date modified: